SL-14 DEB, 45284

Orbit data source: Space-Track

SL-14 DEB, 45284 is space debris in LEO originally from a launch on Thu, 15 Aug 1991 UTC launched from the Plesetsk Missile And Space Complex (PKMTR). Debris objects in space refer to the collection of defunct objects orbiting the Earth. Examples of debris include non-operational satellites, rocket bodies, and fragments generated from explosions, collisions, or faulty payload assembly.

Loading next visibility...
Identifier
45284, 1991-056W
Orbit
LEO
Country
Flag of CISCIS
Related business
Manufacturer
Unknown
Mission
Spacecraft
Bus & Motor
Unknown
Mass
Unknown
Launch date (UTC)
1991-08-15 (34 years ago)
Launch vehicle
Unknown
Launch site
Plesetsk Missile And Space Complex (PKMTR)
Object type
Payload
Rocket body
Debris
Shape & HBR
Unknown shape, 0.2 m
Radar Cross Section
Small (<0.1 m²)

Expand to show TLE details & history
Last TLE update: 4 hours ago

TLE from 4 hours ago
0 SL-14 DEB
1 45284U 91056W   25300.28276392  .00003863  00000-0  63814-2 0  9997
2 45284  82.5628 250.4637 0108765 109.2551 252.0391 13.44365335277839
Epoch: 2025-10-27T06:47Z
TLE epoch observation values (Epoch: 2025-10-27T06:47:10.802Z)
Latitude
-0.00005°
Longitude
112.78185°
Altitude
1,121.768 km
Speed
7.279 km/s
True Right ascension
16h 41m 51s
True Declination
0° 00' 00"
Sunlit
Object was in daylight at epoch
Visualization orbit readout
Latitude
Unknown
Longitude
Unknown
Altitude
Unknown
Speed
Unknown
Apparent Right ascension
Unknown
Apparent Declination
Unknown
Sunlit
N/A
Visualization observer readout
Local Sidereal Time
06:38:12
Azimuth
Unknown
Elevation
Unknown
Doppler factor
Unknown
Orbital elements
Apogee altitude
1,171.498 km
Perigee altitude
1,009.037 km
Semi-major axis
7,468.405 km
Eccentricity
0.01088
Inclination
82.5628°
RAAN
250.4637°
Arg. of periapsis
109.2551°
True anomaly
250.85852°
Mean anomaly
252.0391°
Eccentric anomaly
251.4483°
Mean motion
3.3628 °/min
Orbital period
107.05 mins
BSTAR
0.0063814
Loading maneuver chart data...
Computing Atmospheric mass density...
Loading historical data...
Loading historical data...
Loading historical data...
Loading historical data...
Loading historical data...
Loading historical data...
Loading historical data...

Documentation

Showing up to 5 results
|